Woodinville, Washington, United States (98072)
Lat: 47.75N, Lon: 122.16W
Wx Zone: WAZ505
Local Info
Past Weather Observations for Saturday, November 22, 2014

NOTE: This archive is for the closest National Weather Service station to Woodinville. Information may differ from the station used for current weather conditions.

Click here for Long-term Archive

Time Weather Temperature Dewpoint Humidity Pressure Winds Precip Visibility
23:53
Overcast
45°F / 7°C 41°F / 5°C 87% 30.12 in
(1020 mb)
S 10.4 mph
(S 17 kph)
- 10SM
22:53
Mostly Cloudy
45°F / 7°C 41°F / 5°C 87% 30.09 in
(1019 mb)
S 10.4 mph
(S 17 kph)
- 10SM
21:53
Overcast
45°F / 7°C 41°F / 5°C 87% 30.09 in
(1019 mb)
S 8.1 mph
(S 13 kph)
- 10SM
20:53
Overcast
45°F / 7°C 43°F / 6°C 93% 30.06 in
(1018 mb)
SSE 8.1 mph
(SSE 13 kph)
0.00 in
(0.00 mm)
10SM
19:53
Overcast
Light Rain
45°F / 7°C 41°F / 5°C 87% 30.06 in
(1018 mb)
SSE 10.4 mph
(SSE 17 kph)
0.00 in
(0.00 mm)
10SM
18:53
Mostly Cloudy
45°F / 7°C 41°F / 5°C 87% 30.04 in
(1017 mb)
S 5.8 mph
(S 9 kph)
- 10SM
17:53
Clear
45°F / 7°C 41°F / 5°C 87% 30.01 in
(1016 mb)
S 5.8 mph
(S 9 kph)
- 10SM
16:53
Partly Cloudy
45°F / 7°C 41°F / 5°C 87% 29.98 in
(1015 mb)
SSE 8.1 mph
(SSE 13 kph)
- 10SM
15:53
Partly Cloudy
46°F / 8°C 43°F / 6°C 87% 29.95 in
(1014 mb)
S 9.2 mph
(S 15 kph)
- 10SM
14:53
Overcast
46°F / 8°C 43°F / 6°C 87% 29.92 in
(1013 mb)
S 11.5 mph
(S 19 kph)
- 10SM
13:53
Partly Cloudy
46°F / 8°C 41°F / 5°C 82% 29.89 in
(1012 mb)
S 6.9 mph
(S 11 kph)
- 10SM
12:53
Mostly Cloudy
46°F / 8°C 43°F / 6°C 87% 29.83 in
(1010 mb)
SW 10.4 mph
(SW 17 kph)
- 10SM
11:53
Overcast
46°F / 8°C 43°F / 6°C 87% 29.8 in
(1009 mb)
SW 8.1 mph
(SW 13 kph)
- 10SM
11:38
Overcast
46°F / 8°C 41°F / 5°C 82% 29.8 in
(1009 mb)
SW 8.1 mph
(SW 13 kph)
- 10SM
11:35
Overcast
46°F / 8°C 41°F / 5°C 82% 29.8 in
(1009 mb)
SW 9.2 mph
(SW 15 kph)
- 10SM
10:53
Overcast
46°F / 8°C 43°F / 6°C 87% 29.77 in
(1008 mb)
SSE 6.9 mph
(SSE 11 kph)
- 10SM
09:53
Overcast
45°F / 7°C 41°F / 5°C 87% 29.74 in
(1007 mb)
SW 12.7 mph
(SW 20 kph)
- 10SM
08:53
Partly Cloudy
45°F / 7°C 41°F / 5°C 87% 29.71 in
(1006 mb)
SSE 9.2 mph
(SSE 15 kph)
- 10SM
07:53
Mostly Cloudy
45°F / 7°C 39°F / 4°C 81% 29.68 in
(1005 mb)
SSE 5.8 mph
(SSE 9 kph)
- 10SM
06:53
Mostly Cloudy
43°F / 6°C 39°F / 4°C 87% 29.68 in
(1005 mb)
S 6.9 mph
(S 11 kph)
- 10SM
05:53
Mostly Cloudy
43°F / 6°C 39°F / 4°C 87% 29.65 in
(1004 mb)
S 6.9 mph
(S 11 kph)
- 10SM
04:53
Partly Cloudy
43°F / 6°C 39°F / 4°C 87% 29.65 in
(1004 mb)
SSE 9.2 mph
(SSE 15 kph)
- 10SM
03:53
Partly Cloudy
45°F / 7°C 39°F / 4°C 81% 29.62 in
(1003 mb)
SSE 8.1 mph
(SSE 13 kph)
- 10SM
02:53
Partly Cloudy
45°F / 7°C 41°F / 5°C 87% 29.62 in
(1003 mb)
SSE 9.2 mph
(SSE 15 kph)
- 10SM
01:53
Clear
45°F / 7°C 39°F / 4°C 81% 29.59 in
(1002 mb)
Calm - 10SM
00:53
Mostly Cloudy
45°F / 7°C 43°F / 6°C 93% 29.53 in
(1000 mb)
Variable 4.6 mph
(Variable 7 kph)
0.11 in
(2.79 mm)
10SM
00:33
Overcast
Light Rain
46°F / 8°C 43°F / 6°C 87% 29.53 in
(1000 mb)
SSE 6.9 mph
(SSE 11 kph)
0.11 in
(2.79 mm)
10SM
00:23
Overcast
Light Rain
46°F / 8°C 43°F / 6°C 87% 29.53 in
(1000 mb)
SE 4.6 mph
(SE 7 kph)
0.11 in
(2.79 mm)
4SM
00:15
Overcast
Rain
46°F / 8°C 43°F / 6°C 87% 29.53 in
(1000 mb)
ESE 6.9 mph
(ESE 11 kph)
0.09 in
(2.29 mm)
2 1/2SM
Time Weather Temperature Dewpoint Humidity Pressure Winds Precip Visibility


Weather for websites

WeatherForYou.com, LLC is not responsible for any damages or problems caused by this service. Current weather conditions are obtained from the closest station including government and personal stations which may have varying degrees of accuracy. Weather forecasts are derived from the NOAA NDFD. Like all things, this site belongs to Jesus Christ... He just trusts me to maintain it. If you have any questions or comments email webmaster@weatherforyou.com

Copyright © 2014, WeatherForYou.com LLC. All rights reserved.